User: anonymous   Login
Location: ??????
(38.1303°N, 24.0039°E)
Time: 02:53:48
(UTC+00:00)
Language:

OAO 1 - Orbit

View from above orbital plane
View from above orbital plane
View from above satellite
View from above satellite

Ground track
Ground track

The orbit data is extracted from the following two-line orbital elements,

1 02142U 66031A   21264.11708292 -.00000040  00000-0 -71677-5 0  9999
2 02142  35.0463  61.1409 0006649  53.0792 307.0503 14.33901666902563
Epoch (UTC): 21 September 2021 02:48:35
Eccentricity: 0.0006649
inclination: 35.0463°
perigee height: 774 km
apogee height: 783 km
right ascension of ascending node: 61.1409°
argument of perigee: 53.0792°
revolutions per day: 14.33901666
mean anomaly at epoch: 307.0503°
orbit number at epoch: 90256

The dashed part of the orbit path shows where the satellite is in the earth's shadow,  

DLR